Погода в Пучхоне

Южная Корея     37°29′36″N   126°46′45″E
темп.,
°C
ветер,
м/с
пор.,
м/с
влажн.,
%
обл.,
%
осадки,
мм/ч
давл.,
гПа
погр.,
м
21 января, чт
чт2100:00+1всв124022 0.0 102824
03:00+1всв124532 0.0 102728
06:00+1в2250100 0.0 102646
09:00+1в2255100 0.0 102643
12:00+3в2357100 0.0 102480
15:00+3всв1165100 0.0 102122
18:00+2всв1289100 1.3 102126
21:00+2в1297100 3.8 102026
22 января, пт
пт2200:00+2в1298100 3.4 101925
03:00+2всв1198100 4.2 101822
06:00+2св1198100 0.1 101823
09:00+3с119799 0.1 102022
12:00+5ссв129182 0.0 1020150
15:00+6ссв128191 0.0 1019301
18:00+5всв1191100 0.0 102022
21:00+3св1294100 0.0 102124
23 января, сб
сб2300:00+3ссв129467 0.0 102022
03:00+2ссв229483 0.0 102036
06:00+3ссв2391100 0.0 101954
09:00+3св2384100 0.0 102158
12:00+4ссв2578100 0.0 1021215
15:00+5ссв3672100 0.0 1020217
18:00+4св3475100 0.0 1021110
21:00+4св2376100 0.0 102360
24 января, вс
вс2400:00+3ссв338093 0.0 102376
03:00+2св238491 0.0 102464
06:00+2св228486 0.0 102441
09:00+2св228568 0.0 102643
12:00+6св23650 0.0 1026210
15:00+8ссв12580 0.0 1026356
18:00+6с11650 0.0 102722
21:00+5св11710 0.0 102822
25 января, пн
пн2500:00+4св22790 0.0 102922
03:00+3в12850 0.0 102922
06:00+2всв12880 0.0 103022
09:00+2в22867 0.0 103141
12:00+6в246666 0.0 1029265
15:00+9юв245665 0.0 1027530
18:00+7всв1264100 0.0 102722
21:00+6в1168100 0.0 102722